Weather Roundup
Issued by NWS Springfield, MO

Home | Current Version | Previous Version | Text Only | Print | Product List | Glossary On
Versions: 1 2 3 4 5 6 7 8 9 10 11 12 13 14 15 16 17 18 19 20 21 22 23 24 25 26 27 28 29 30 31 32 33 34 35 36 37 38 39 40 41 42 43 44 45 46 47 48 49 50
000
NZUS99 KSGF 270207
HRRSGF

HOURLY WEATHER
NATIONAL WEATHER SERVICE SPRINGFIELD MO
900 PM CDT WED APR 26 2017

......SGF CWA......

CITY           SKY/WX    TMP DP  RH WIND       PRES   REMARKS
SPRINGFIELD    CLOUDY    45  43  93 NW14G22   29.60R
JOPLIN         CLOUDY    47  45  93 W9        29.67R
WEST PLAINS    LGT RAIN  49  47  93 W12       29.53R FOG
ROLLA          RAIN      46  46 100 W14       29.52R FOG
OSAGE BEACH    LGT RAIN  45  45 100 VRB7      29.59R FOG
BRANSON        CLOUDY    45  45 100 NW12G17   29.61R

......SURROUNDING SGF CWA......

CITY           SKY/WX    TMP DP  RH WIND       PRES   REMARKS
CHANUTE        CLOUDY    47  40  76 NW3       29.68R
PARSONS        CLOUDY    48  46  93 CALM      29.69R
COFFEYVILLE    CLOUDY    51  42  71 W6        29.69R
EMPORIA        CLOUDY    49  37  63 NW12      29.69R
GROVE OK       CLOUDY    46  45  93 W3        29.70R
ROGERS AR      CLOUDY    44  43  96 NW12      29.66R
SILOAM SPRINGS CLOUDY    45  39  81 NW12      29.68R
HARRISON AR    CLOUDY    45  44  97 NW15G22   29.59S
NEAR YELLVILLE CLOUDY   N/A N/A N/A W9G16     29.57R

......KANSAS AND MISSOURI......

CITY           SKY/WX    TMP DP  RH WIND       PRES   REMARKS
KANSAS CTY INT CLOUDY    44  35  70 NW12      29.63R
DOWNTOWN KC    CLOUDY    47  37  68 NW9       29.64R
COLUMBIA       LGT RAIN  47  46  97 W9        29.54R
SEDALIA        LGT RAIN  46  46 100 NW10      29.60R
ST JOSEPH      CLOUDY    44  36  73 NW14      29.65R
ST LOUIS       LGT RAIN  62  59  90 S9        29.46R
SPIRIT OF STL  LGT RAIN  61  60  97 S7        29.43F
KIRKSVILLE     CLOUDY    46  44  93 NW10G20   29.54R
WICHITA        MOCLDY    50  37  61 N7        29.70R
TOPEKA         CLOUDY    47  37  68 NW12      29.68R
OLATHE         CLOUDY    44  38  79 NW12G21   29.64R

......TENNESSEE......

CITY           SKY/WX    TMP DP  RH WIND       PRES   REMARKS
MEMPHIS        TSTM      63  62  97 SE5       29.55F
NASHVILLE      CLOUDY    74  58  57 S16       29.59S

......ARKANSAS.......

CITY           SKY/WX    TMP DP  RH WIND       PRES   REMARKS
FAYETTEVILLE   CLOUDY    44  44 100 NW12      29.67R
FT SMITH       CLOUDY    51  44  77 NW13      29.71R
LITTLE ROCK    CLOUDY    56  55  97 W14       29.57R

......OKLAHOMA.......

CITY           SKY/WX    TMP DP  RH WIND       PRES   REMARKS
TULSA          CLOUDY    52  43  71 NW7       29.70R
PONCA CITY     CLEAR     48  38  68 N5        29.70R
MCALESTER      CLOUDY    53  47  79 CALM      29.74R
OKLAHOMA CITY  PTCLDY    51  40  65 CALM      29.72R

......IOWA............

CITY           SKY/WX    TMP DP  RH WIND       PRES   REMARKS
DES MOINES     CLOUDY    44  36  73 NW15      29.58F
QUAD CITIES    CLOUDY    50  45  83 NW6       29.48F

......ILLINOIS........

CITY           SKY/WX    TMP DP  RH WIND       PRES   REMARKS
QUINCY         RAIN      47  46  97 N14       29.48F FOG
CHICAGO        CLOUDY    63  56  78 W5        29.45S



USA.gov is the U.S. government's official web portal to all federal, state and local government web resources and services.